Lid_Strength_Index
-1 -0 0 3 11 12 14 13 10 10 10 7 6 8 9 8 9 13 2 1 0 0 -0 -1 -1 -1 -1 -1 -1 -2 -2 -2 -2 -2 -1 -1 -1 -1 -1 -1 -1 -1 -1 -1 -1 -1 -1 -1 -1
-0 0 2 6 13 17 15 10 11 9 7 6 6 7 8 9 5 4 3 1 -0 -0 -0 -0 -1 -1 -1 -1 -2 -2 -1 -1 -1 -1 -1 -1 -1 -1 -1 -1 -1 -1 -1 -1 -1 -1 -1 -1 -1
0 1 7 10 13 16 14 10 9 8 6 6 7 5 7 8 4 4 1 0 -0 -0 -0 -0 -1 -2 -2 -2 -1 -2 -1 -1 -1 -1 -1 -1 -1 -1 -1 -1 -1 -1 -1 -1 -1 -1 -1 -1 -1
2 4 6 12 14 11 10 9 8 8 6 6 6 9 5 3 3 2 0 0 0 0 -0 -1 -1 -2 -2 -1 -1 -1 -1 -1 -1 -1 -1 -1 -1 -1 -1 -1 -1 -1 -1 -1 -1 -1 -1 -1 -1
2 6 12 13 13 10 8 7 7 8 8 7 6 9 7 3 1 1 1 0 1 0 0 -0 -1 -2 -2 -1 -2 -2 -1 -1 -1 -1 -1 -1 -1 -1 -1 -1 -1 -1 -1 -1 -1 -1 -1 -1 -1
8 7 13 15 12 9 8 7 7 8 7 7 8 8 7 2 2 1 1 1 0 0 -0 -0 -1 -1 -1 -2 -1 -1 -1 -1 -1 -1 -1 -1 -1 -1 -1 -1 -1 -1 -1 -1 -1 -1 -1 -1 -1
9 11 13 12 11 11 9 6 8 8 8 8 5 9 6 4 2 1 1 0 0 -0 -0 0 -0 -1 -2 -2 -2 -1 -1 -1 -1 -1 -1 -1 -1 -1 -1 -1 -1 -1 -1 -1 -1 -1 -1 -1 -1
6 9 12 11 12 12 8 7 6 7 8 4 4 9 9 4 2 1 1 1 0 0 -0 0 0 0 -0 -0 -2 -2 -1 -1 -1 -1 -1 -1 -1 -1 -1 -2 -1 -1 -1 -1 -1 -1 -1 -1 -1
5 11 13 12 11 10 7 8 5 4 6 5 5 5 4 2 2 2 2 2 1 1 0 0 0 0 0 -0 -1 -1 -2 -2 -1 -1 -1 -1 0 -0 -0 -1 -1 -1 -1 -1 -1 -1 -1 -1 -1
8 12 11 7 8 9 7 7 7 7 7 7 6 4 3 3 3 3 3 3 3 2 1 0 1 0 0 -0 0 0 -0 0 0 -0 0 0 0 -0 -1 -1 -1 -1 -1 -1 -1 -1 -1 -1 -0
8 11 8 7 6 6 7 7 6 8 9 7 7 6 4 4 4 4 3 3 3 2 1 0 0 0 0 0 0 0 0 0 0 0 0 0 -0 0 -0 0 0 0 -1 -0 -0 -0 -0 -0 0
10 7 7 6 5 6 7 6 7 7 7 5 4 4 4 4 4 4 3 3 2 2 1 1 0 0 1 1 -0 0 0 0 0 0 0 0 0 0 1 0 0 1 0 -0 -0 0 -0 0 0
9 8 6 6 6 5 6 7 7 7 5 4 4 4 4 4 4 3 3 2 2 2 1 1 0 0 0 1 0 0 0 0 0 0 1 0 1 1 0 0 0 0 0 0 0 -0 0 0 0
8 7 7 7 6 5 7 7 7 6 5 5 5 5 4 4 4 3 3 3 2 2 2 1 0 0 0 0 0 0 0 0 0 0 0 -0 0 1 1 1 1 0 0 -0 -0 0 1 1 0
8 10 9 9 8 7 6 9 9 6 5 6 6 5 5 4 3 4 3 3 2 2 1 1 1 0 0 0 0 0 0 -0 0 -0 -0 0 0 1 1 1 1 1 0 -0 -0 1 0 1 0
12 12 13 9 7 6 7 11 8 5 6 7 6 5 5 4 4 3 2 2 2 2 2 1 0 0 0 0 0 0 0 -0 -0 1 -0 0 0 1 1 1 1 1 1 0 1 1 2 3 3
14 14 13 11 7 7 8 11 8 6 7 7 7 6 5 5 4 3 2 2 2 1 1 1 1 1 1 0 1 1 1 1 0 1 0 0 0 -0 0 0 1 1 1 1 1 2 2 4 3
15 15 13 13 10 8 10 10 8 7 7 7 7 6 6 5 5 3 2 2 2 1 1 1 1 1 0 1 1 1 2 1 1 1 0 0 -0 -0 1 1 0 1 1 2 2 2 2 2 2
13 13 13 11 8 9 9 10 9 7 7 7 7 7 6 5 4 3 2 2 2 2 2 1 1 1 1 1 1 2 2 2 1 1 0 0 -0 -0 1 1 0 1 2 2 2 3 3 3 2
12 13 13 12 9 9 10 10 8 8 8 7 7 7 6 5 5 4 3 2 2 2 2 2 1 1 1 1 1 1 2 1 1 0 1 1 0 0 1 1 1 1 2 2 2 3 4 3 3
13 14 13 13 11 9 10 12 10 8 7 7 6 5 5 5 5 4 4 3 2 2 2 2 1 1 1 1 1 2 1 1 1 1 1 1 0 -0 0 1 1 1 2 2 4 4 2 4 2
14 11 12 12 13 15 10 17 12 10 9 8 7 6 6 5 4 4 4 3 3 2 2 1 1 1 1 1 1 2 2 3 2 2 1 0 0 -0 0 1 1 1 2 3 4 3 2 3 3
10 9 12 12 14 15 13 14 12 9 11 9 7 6 6 5 4 4 4 3 3 2 2 2 1 1 1 1 1 2 2 2 2 2 2 2 1 1 0 1 1 2 2 3 4 4 2 3 3
8 10 12 14 15 17 13 14 14 12 10 8 7 6 5 5 4 4 3 3 3 2 2 2 2 2 1 1 1 1 2 2 2 3 2 2 1 1 1 1 1 2 3 3 4 3 2 2 2
10 13 16 18 19 17 14 15 13 10 8 7 7 6 5 5 4 4 4 3 3 3 3 2 2 2 2 1 1 1 1 2 2 2 2 2 2 2 2 1 2 3 3 2 3 3 2 2 2
13 13 17 20 20 17 15 16 13 8 7 6 5 5 5 5 4 4 4 3 3 3 2 2 2 2 2 2 1 1 1 1 1 2 2 1 1 2 1 1 1 3 3 3 3 2 2 2 2
13 14 12 16 16 18 16 14 11 8 8 7 6 6 5 5 4 4 4 3 3 3 3 3 2 2 2 2 1 1 1 1 2 2 2 1 1 1 2 1 2 3 4 3 3 3 2 2 2
10 12 15 18 18 18 17 15 15 11 9 9 7 6 6 5 4 4 4 3 3 2 2 2 2 2 2 2 1 1 1 1 1 2 1 1 2 2 2 2 2 3 3 3 3 3 2 2 2
12 14 16 15 16 17 19 16 11 11 10 9 8 6 5 5 5 4 4 3 3 2 2 2 2 2 2 2 2 2 1 1 1 1 1 1 2 3 2 2 2 3 4 3 3 2 2 3 2
10 11 14 16 17 17 15 15 11 9 8 9 8 6 5 5 4 4 4 4 3 3 3 3 2 2 2 2 2 2 1 1 1 1 1 1 2 3 2 2 2 2 3 3 2 2 2 3 3